W3MSB-2 Weather Reports


time (UTC)temp
C
wind
direction
speed
KPH
gust
KPH
rain 1hr
cm
rain 24hr
cm
rain mn
cm
humidity
%
barometer
mb
20260507070500 11 0.0 0.0 0.00 1.60 0.00 68 1011.3
20260507070401 11 0.0 0.0 0.00 1.60 0.00 68 1011.3
20260507070259 11 0.0 0.0 0.00 1.60 0.00 69 1011.3
20260507070200 11 0.0 0.0 0.00 1.60 0.00 68 1011.3
20260507070101 11 0.0 0.0 0.00 1.60 0.00 68 1011.3
20260507070007 11 0.0 0.0 0.00 1.60 0.00 72 1011.3
20260507065900 11 0.0 0.0 0.00 1.60 0.00 71 1011.3
20260507065802 11 0.0 0.0 0.00 1.60 0.00 72 1011.3
20260507065700 11 0.0 0.0 0.00 1.60 0.00 71 1011.2
20260507065602 11 0.0 0.0 0.00 1.60 0.00 73 1011.3
20260507065401 11 0.0 0.0 0.00 1.60 0.00 73 1011.3
20260507065305 11 0.0 0.0 0.00 1.60 0.00 72 1011.3
20260507065001 11 0.0 0.0 0.00 1.60 0.00 73 1011.3
20260507064800 11 0.0 0.0 0.00 1.60 0.00 73 1011.3
20260507064700 11 0.0 0.0 0.00 1.60 0.00 74 1011.2
20260507064459 11 0.0 0.0 0.00 1.60 0.00 76 1011.2
20260507064359 11 0.0 0.0 0.00 1.60 0.00 75 1011.2
20260507064300 11 0.0 0.0 0.00 1.60 0.00 75 1011.2
20260507064201 11 0.0 0.0 0.00 1.60 0.00 77 1011.2
20260507064059 11 0.0 0.0 0.00 1.60 0.00 75 1011.2
20260507064000 11 0.0 0.0 0.00 1.60 0.00 76 1011.2
20260507063900 11 0.0 0.0 0.00 1.60 0.00 74 1011.2
20260507063804 11 0.0 0.0 0.00 1.60 0.00 77 1011.2
20260507063659 11 0.0 0.0 0.00 1.60 0.00 76 1011.2
20260507063600 11 0.0 0.0 0.00 1.60 0.00 77 1011.3
20260507063400 11 0.0 0.0 0.00 1.60 0.00 78 1011.3
20260507063300 11 0.0 0.0 0.00 1.60 0.00 78 1011.2
20260507063200 11 0.0 0.0 0.00 1.60 0.00 78 1011.1
20260507063000 11 0.0 0.0 0.00 1.60 0.00 80 1011.2
20260507062800 11 0.0 0.0 0.00 1.60 0.00 81 1011.3
20260507062700 11 0.0 0.0 0.00 1.60 0.00 82 1011.3
20260507062559 11 0.0 0.0 0.00 1.60 0.00 81 1011.3
20260507062500 11 0.0 0.0 0.00 1.60 0.00 83 1011.3
20260507062201 11 0.0 0.0 0.00 1.60 0.00 83 1011.3
20260507062100 11 0.0 0.0 0.00 1.60 0.00 83 1011.3
20260507062000 11 0.0 0.0 0.00 1.60 0.00 83 1011.3
20260507061801 11 0.0 0.0 0.00 1.60 0.00 84 1011.3
20260507061701 11 0.0 0.0 0.00 1.60 0.00 83 1011.2
20260507061600 11 0.0 0.0 0.00 1.60 0.00 84 1011.2
20260507061502 11 0.0 0.0 0.00 1.60 0.00 84 1011.2
20260507061400 11 0.0 0.0 0.00 1.60 0.00 84 1011.2
20260507061300 11 0.0 0.0 0.00 1.60 0.00 85 1011.3
20260507061101 11 0.0 0.0 0.00 1.60 0.00 86 1011.3
20260507061002 11 0.0 0.0 0.00 1.60 0.00 85 1011.3
20260507060901 11 0.0 0.0 0.00 1.60 0.00 85 1011.3
20260507060801 11 0.0 0.0 0.00 1.60 0.00 84 1011.2
20260507060701 11 0.0 0.0 0.00 1.60 0.00 85 1011.2
20260507060600 11 0.0 0.0 0.00 1.60 0.00 85 1011.2
20260507060500 11 0.0 0.0 0.00 1.60 0.00 84 1011.3
20260507060301 11 0.0 0.0 0.00 1.60 0.00 84 1011.3
20260507060200 11 0.0 0.0 0.00 1.60 0.00 85 1011.3
20260507060100 11 0.0 0.0 0.00 1.60 0.00 85 1011.4
20260507055900 11 0.0 0.0 0.00 1.60 0.00 84 1011.2
20260507055800 11 0.0 0.0 0.00 1.60 0.00 85 1011.2
20260507055700 11 0.0 0.0 0.00 1.60 0.00 85 1011.2
20260507055400 11 0.0 0.0 0.00 1.60 0.00 85 1011.2
20260507055301 11 0.0 0.0 0.00 1.60 0.00 85 1011.1
20260507055201 11 0.0 0.0 0.00 1.60 0.00 85 1011.1
20260507055059 11 0.0 0.0 0.00 1.60 0.00 85 1011.1
20260507055000 11 0.0 0.0 0.00 1.60 0.00 85 1011.1
20260507054900 11 0.0 0.0 0.00 1.60 0.00 85 1011.1
20260507054800 11 0.0 0.0 0.00 1.60 0.00 86 1011.1
20260507054701 11 0.0 0.0 0.00 1.60 0.00 85 1011.0
20260507054600 11 0.0 0.0 0.00 1.60 0.00 85 1011.0
20260507054401 11 0.0 0.0 0.00 1.60 0.00 85 1011.0
20260507054300 11 0.0 0.0 0.00 1.60 0.00 86 1011.1
20260507054102 11 0.0 0.0 0.00 1.60 0.00 86 1011.0
20260507053600 11 0.0 0.0 0.00 1.60 0.00 86 1011.0
20260507053500 11 0.0 0.0 0.00 1.60 0.00 87 1011.0
20260507053359 11 0.0 0.0 0.00 1.60 0.00 86 1010.9
20260507053300 11 0.0 0.0 0.00 1.60 0.00 87 1011.0
20260507053101 11 0.0 0.0 0.00 1.60 0.00 87 1011.1
20260507052900 11 0.0 0.0 0.00 1.60 0.00 87 1011.0
20260507052800 11 0.0 0.0 0.00 1.60 0.00 87 1011.0
20260507052701 11 0.0 0.0 0.00 1.60 0.00 87 1011.0
20260507052603 11 0.0 0.0 0.00 1.60 0.00 87 1011.0
20260507052500 11 0.0 0.0 0.00 1.60 0.00 88 1011.0
20260507052401 11 0.0 0.0 0.00 1.60 0.00 87 1011.0
20260507052259 11 0.0 0.0 0.00 1.60 0.00 87 1011.1
20260507052200 11 0.0 0.0 0.00 1.60 0.00 87 1011.1
20260507052059 11 0.0 0.0 0.00 1.60 0.00 87 1011.1
20260507052001 11 0.0 0.0 0.00 1.60 0.00 87 1011.2
20260507051700 11 0.0 0.0 0.00 1.60 0.00 87 1011.2
20260507051600 11 0.0 0.0 0.00 1.60 0.00 87 1011.1
20260507051501 11 0.0 0.0 0.00 1.60 0.00 87 1011.2
20260507051400 11 0.0 0.0 0.00 1.60 0.00 87 1011.3
20260507051301 11 0.0 0.0 0.00 1.60 0.00 87 1011.4
20260507051159 11 0.0 0.0 0.00 1.60 0.00 87 1011.4
20260507051101 11 0.0 0.0 0.00 1.60 0.00 87 1011.3
20260507050959 11 0.0 0.0 0.00 1.60 0.00 87 1011.2
20260507050901 11 0.0 0.0 0.00 1.60 0.00 86 1011.2
20260507050800 11 0.0 0.0 0.00 1.60 0.00 86 1011.2
20260507050700 11 0.0 0.0 0.00 1.60 0.00 86 1011.2
20260507050600 11 0.0 0.0 0.00 1.60 0.00 86 1011.1
20260507050500 11 0.0 0.0 0.00 1.60 0.00 86 1011.0
20260507050359 11 0.0 0.0 0.00 1.60 0.00 86 1010.9
20260507050301 11 0.0 0.0 0.00 1.60 0.00 87 1010.9
20260507050200 11 0.0 0.0 0.00 1.60 0.00 87 1010.9
20260507050100 11 0.0 0.0 0.00 1.60 0.00 87 1011.0
20260507050003 11 0.0 0.0 0.00 1.60 0.00 87 1011.0
20260507045905 11 0.0 0.0 0.00 1.60 0.00 87 1011.1
20260507045603 11 0.0 0.0 0.00 1.60 0.00 86 1011.1
20260507045502 11 0.0 0.0 0.00 1.60 0.00 86 1011.2
20260507045402 11 0.0 0.0 0.00 1.60 0.00 86 1011.2
20260507045306 11 0.0 0.0 0.00 1.60 0.00 87 1011.2
20260507045202 11 0.0 0.0 0.00 1.60 0.00 86 1011.2
20260507045101 11 0.0 0.0 0.00 1.60 0.00 87 1011.2
20260507045002 11 0.0 0.0 0.00 1.60 0.00 86 1011.2
20260507044901 11 0.0 0.0 0.00 1.60 0.00 87 1011.2
20260507044801 11 0.0 0.0 0.00 1.60 0.00 87 1011.2
20260507044701 11 0.0 0.0 0.00 1.60 0.00 86 1011.3
20260507044603 11 0.0 0.0 0.00 1.60 0.00 86 1011.3
20260507044502 11 0.0 0.0 0.00 1.60 0.00 86 1011.3
20260507044403 11 0.0 0.0 0.00 1.60 0.00 86 1011.3
20260507044202 11 0.0 0.0 0.00 1.60 0.00 86 1011.4
20260507044103 11 0.0 0.0 0.00 1.60 0.00 86 1011.4
20260507044002 12 0.0 0.0 0.00 1.60 0.00 86 1011.5
20260507043902 12 0.0 0.0 0.00 1.60 0.00 85 1011.5
20260507043702 12 0.0 0.0 0.00 1.60 0.00 86 1011.3
20260507043502 12 0.0 0.0 0.00 1.60 0.00 86 1011.3
20260507043302 12 0.0 0.0 0.00 1.60 0.00 85 1011.2
20260507043203 12 0.0 0.0 0.00 1.60 0.00 85 1011.2
20260507043102 12 0.0 0.0 0.00 1.60 0.00 85 1011.1
20260507042902 12 0.0 0.0 0.00 1.60 0.00 85 1011.2
20260507042802 12 0.0 0.0 0.00 1.60 0.00 85 1011.3
20260507042702 12 0.0 0.0 0.00 1.60 0.00 86 1011.3
20260507042602 12 0.0 0.0 0.00 1.60 0.00 85 1011.2
20260507042306 12 0.0 0.0 0.00 1.60 0.00 86 1011.2
20260507042102 12 0.0 0.0 0.00 1.60 0.00 86 1011.2
20260507042002 12 0.0 0.0 0.00 1.60 0.00 86 1011.1
20260507041802 12 0.0 0.0 0.00 1.60 0.00 85 1011.1
20260507041702 12 0.0 0.0 0.00 1.60 0.00 85 1011.1
20260507041603 12 0.0 0.0 0.00 1.60 0.00 85 1011.1
20260507041502 12 0.0 0.0 0.00 1.60 0.00 86 1011.1
20260507041401 12 0.0 0.0 0.00 1.60 0.00 86 1011.1
20260507041104 12 0.0 0.0 0.00 1.60 0.00 86 1011.1
20260507041002 12 0.0 0.0 0.00 1.60 0.00 85 1011.1
20260507040902 12 0.0 0.0 0.00 1.60 0.00 85 1011.1
20260507040802 12 0.0 0.0 0.00 1.60 0.00 86 1011.1
20260507040702 12 0.0 0.0 0.00 1.60 0.00 86 1011.1
20260507040602 12 0.0 0.0 0.00 1.60 0.00 85 1011.2
20260507040502 12 0.0 0.0 0.00 1.60 0.00 85 1011.2
20260507040303 12 0.0 0.0 0.00 1.60 0.00 85 1011.1
20260507040202 12 0.0 0.0 0.00 1.60 0.00 85 1011.2
20260507040007 12 0.0 0.0 0.00 1.60 0.00 85 1011.2
20260507035906 12 0.0 0.0 0.00 1.60 1.60 85 1011.2
20260507035809 12 0.0 0.0 0.00 1.60 1.60 85 1011.3
20260507035704 12 0.0 0.0 0.00 1.60 1.60 85 1011.3
20260507035606 12 0.0 0.0 0.00 1.60 1.60 85 1011.2
20260507035505 12 0.0 0.0 0.00 1.60 1.60 85 1011.2
20260507035404 12 0.0 0.0 0.00 1.60 1.60 85 1011.2
20260507035309 12 0.0 0.0 0.00 1.60 1.60 85 1011.1
20260507035207 12 0.0 0.0 0.00 1.60 1.60 85 1010.9
20260507035108 12 0.0 0.0 0.00 1.60 1.60 86 1010.8
20260507035003 12 0.0 0.0 0.00 1.60 1.60 85 1010.9
20260507034803 12 0.0 0.0 0.00 1.60 1.60 85 1011.0
20260507034703 12 0.0 0.0 0.00 1.60 1.60 85 1011.1
20260507034604 12 0.0 0.0 0.00 1.60 1.60 85 1011.1
20260507034503 12 0.0 0.0 0.00 1.60 1.60 85 1011.2
20260507034403 12 0.0 0.0 0.00 1.60 1.60 85 1011.3
20260507034304 12 0.0 0.0 0.00 1.60 1.60 86 1011.3
20260507034203 12 0.0 0.0 0.00 1.60 1.60 86 1011.2
20260507034003 12 0.0 0.0 0.00 1.60 1.60 85 1010.9
20260507033803 12 0.0 0.0 0.00 1.60 1.60 86 1011.0
20260507033704 12 0.0 0.0 0.00 1.60 1.60 85 1011.0
20260507033602 12 0.0 0.0 0.00 1.60 1.60 85 1011.1
20260507033502 12 0.0 0.0 0.00 1.60 1.60 85 1011.1
20260507033402 12 0.0 0.0 0.00 1.60 1.60 85 1011.2
20260507033304 12 0.0 0.0 0.00 1.60 1.60 85 1011.2
20260507033204 12 0.0 0.0 0.00 1.60 1.60 86 1011.2
20260507033103 12 0.0 0.0 0.00 1.60 1.60 85 1011.1
20260507033003 12 0.0 0.0 0.00 1.60 1.60 86 1011.0
20260507032903 12 0.0 0.0 0.00 1.60 1.60 86 1010.8
20260507032804 12 0.0 0.0 0.00 1.60 1.60 85 1010.7
20260507032703 12 0.0 0.0 0.00 1.60 1.60 85 1010.6
20260507032604 12 0.0 0.0 0.00 1.60 1.60 85 1010.6
20260507032505 12 0.0 0.0 0.00 1.60 1.60 85 1010.5
20260507032405 12 0.0 0.0 0.00 1.60 1.60 85 1010.4
20260507032305 12 0.0 0.0 0.00 1.60 1.60 85 1010.4
20260507032204 12 0.0 0.0 0.00 1.60 1.60 85 1010.3
20260507032104 12 0.0 0.0 0.00 1.60 1.60 85 1010.3
20260507032002 12 0.0 0.0 0.00 1.60 1.60 85 1010.4
20260507031903 12 0.0 0.0 0.00 1.60 1.60 86 1010.5
20260507031804 12 0.0 0.0 0.00 1.60 1.60 85 1010.5
20260507031703 12 0.0 0.0 0.00 1.60 1.60 85 1010.6
20260507031604 12 0.0 0.0 0.00 1.60 1.60 85 1010.5
20260507031504 12 0.0 0.0 0.00 1.60 1.60 85 1010.4
20260507031303 12 0.0 0.0 0.00 1.60 1.60 85 1010.7
20260507031203 12 0.0 0.0 0.00 1.60 1.60 86 1010.8
20260507031104 12 0.0 0.0 0.00 1.60 1.60 86 1010.8
20260507031003 12 0.0 0.0 0.00 1.60 1.60 85 1010.8
20260507030903 12 0.0 0.0 0.00 1.60 1.60 85 1010.9
20260507030803 12 0.0 0.0 0.00 1.60 1.60 85 1010.9
20260507030703 12 0.0 0.0 0.00 1.60 1.60 85 1010.9
20260507030605 12 0.0 0.0 0.00 1.60 1.60 85 1010.8
20260507030503 12 0.0 0.0 0.00 1.60 1.60 85 1010.7
20260507030403 12 0.0 0.0 0.00 1.60 1.60 85 1010.8
20260507030303 12 0.0 0.0 0.00 1.60 1.60 85 1010.9
20260507030203 12 0.0 0.0 0.00 1.60 1.60 85 1010.9
20260507030002 12 0.0 0.0 0.00 1.60 1.60 86 1011.0
20260507025902 12 0.0 0.0 0.00 1.60 1.60 86 1011.0
20260507025702 12 0.0 0.0 0.00 1.60 1.60 86 1010.9
20260507025602 12 0.0 0.0 0.00 1.60 1.60 86 1010.9
20260507025404 13 0.0 0.0 0.00 1.60 1.60 86 1010.7
20260507025202 13 0.0 0.0 0.00 1.60 1.60 86 1010.7
20260507025002 13 0.0 0.0 0.00 1.60 1.60 85 1010.7
20260507024803 13 0.0 0.0 0.00 1.60 1.60 85 1010.6
20260507024501 13 0.0 0.0 0.00 1.60 1.60 86 1010.8
20260507024402 13 0.0 0.0 0.00 1.60 1.60 86 1010.7
20260507024302 13 0.0 0.0 0.00 1.60 1.60 86 1010.7
20260507024203 13 0.0 0.0 0.00 1.60 1.60 86 1010.7
20260507024102 13 0.0 0.0 0.00 1.60 1.60 86 1010.7
20260507023901 13 0.0 0.0 0.00 1.60 1.60 86 1010.7
20260507023802 13 0.0 0.0 0.00 1.60 1.60 86 1010.8
20260507023702 13 0.0 0.0 0.00 1.60 1.60 86 1010.8
20260507023603 13 0.0 0.0 0.00 1.60 1.60 86 1010.8
20260507023502 13 0.0 0.0 0.00 1.60 1.60 86 1010.8
20260507023403 13 0.0 0.0 0.00 1.60 1.60 86 1010.8
20260507023302 13 0.0 0.0 0.00 1.60 1.60 86 1010.7
20260507023202 13 0.0 0.0 0.00 1.60 1.60 86 1010.7
20260507023102 13 0.0 0.0 0.00 1.60 1.60 86 1010.6
20260507023001 13 0.0 0.0 0.00 1.60 1.60 87 1010.6
20260507022702 13 0.0 0.0 0.00 1.60 1.60 86 1010.6
20260507022602 13 0.0 0.0 0.00 1.60 1.60 87 1010.6
20260507022502 13 0.0 0.0 0.00 1.60 1.60 87 1010.6
20260507022402 13 0.0 0.0 0.00 1.60 1.60 86 1010.5
20260507022301 13 0.0 0.0 0.00 1.60 1.60 87 1010.5
20260507022202 13 0.0 0.0 0.00 1.60 1.60 86 1010.5
20260507022101 13 0.0 0.0 0.00 1.60 1.60 87 1010.4
20260507022003 13 0.0 0.0 0.00 1.60 1.60 86 1010.4
20260507021801 13 0.0 0.0 0.00 1.60 1.60 86 1010.5
20260507021702 13 0.0 0.0 0.00 1.60 1.60 86 1010.5
20260507021602 13 0.0 0.0 0.00 1.60 1.60 86 1010.4
20260507021502 13 0.0 0.0 0.00 1.60 1.60 86 1010.4
20260507021402 13 0.0 0.0 0.00 1.60 1.60 86 1010.3
20260507021301 13 0.0 0.0 0.00 1.60 1.60 86 1010.3
20260507021202 13 0.0 0.0 0.00 1.60 1.60 86 1010.3
20260507021102 13 0.0 0.0 0.00 1.60 1.60 86 1010.2
20260507021001 13 0.0 0.0 0.00 1.60 1.60 86 1010.3
20260507020802 13 0.0 0.0 0.00 1.60 1.60 86 1010.4
20260507020702 13 0.0 0.0 0.00 1.60 1.60 86 1010.4
20260507020602 13 0.0 0.0 0.00 1.60 1.60 87 1010.5
20260507020503 13 0.0 0.0 0.00 1.60 1.60 87 1010.4
20260507020402 13 0.0 0.0 0.00 1.60 1.60 87 1010.3
20260507020302 13 0.0 0.0 0.00 1.60 1.60 87 1010.3
20260507015904 13 0.0 0.0 0.00 1.60 1.60 88 1010.5
20260507015802 13 0.0 0.0 0.00 1.60 1.60 88 1010.4
20260507015702 13 0.0 0.0 0.00 1.60 1.60 88 1010.4
20260507015502 13 0.0 0.0 0.00 1.60 1.60 88 1010.5
20260507015402 13 0.0 0.0 0.00 1.60 1.60 87 1010.5
20260507015301 13 0.0 0.0 0.00 1.60 1.60 87 1010.5
20260507015204 13 0.0 0.0 0.00 1.60 1.60 87 1010.5
20260507015102 13 0.0 0.0 0.00 1.60 1.60 87 1010.5
20260507014903 13 0.0 0.0 0.00 1.60 1.60 87 1010.5
20260507014802 13 0.0 0.0 0.00 1.60 1.60 87 1010.5
20260507014702 13 0.0 0.0 0.00 1.60 1.60 87 1010.4
20260507014602 13 0.0 0.0 0.00 1.60 1.60 87 1010.4
20260507014503 13 0.0 0.0 0.00 1.60 1.60 87 1010.4
20260507014402 13 0.0 0.0 0.00 1.60 1.60 87 1010.4
20260507014302 13 0.0 0.0 0.00 1.60 1.60 88 1010.4
20260507014103 13 0.0 0.0 0.00 1.60 1.60 88 1010.5
20260507014002 13 0.0 0.0 0.00 1.60 1.60 87 1010.6
20260507013902 13 0.0 0.0 0.00 1.60 1.60 87 1010.7
20260507013802 13 0.0 0.0 0.00 1.60 1.60 87 1010.6
20260507013702 13 0.0 0.0 0.00 1.60 1.60 87 1010.6
20260507013604 13 0.0 0.0 0.00 1.60 1.60 88 1010.6
20260507013501 13 0.0 0.0 0.00 1.60 1.60 88 1010.6
20260507013402 13 0.0 0.0 0.00 1.60 1.60 88 1010.6
20260507013301 13 0.0 0.0 0.00 1.60 1.60 87 1010.6
20260507013203 13 0.0 0.0 0.00 1.60 1.60 88 1010.6
20260507013102 13 0.0 0.0 0.00 1.60 1.60 88 1010.6
20260507013002 13 0.0 0.0 0.00 1.60 1.60 88 1010.6
20260507012902 13 0.0 0.0 0.00 1.60 1.60 88 1010.5
20260507012801 14 0.0 0.0 0.00 1.60 1.60 89 1010.5
20260507012702 14 0.0 0.0 0.00 1.60 1.60 88 1010.5
20260507012603 14 0.0 0.0 0.00 1.60 1.60 88 1010.6
20260507012402 14 0.0 0.0 0.00 1.60 1.60 88 1010.6
20260507012203 14 0.0 0.0 0.00 1.60 1.60 89 1010.6
20260507012103 14 0.0 0.0 0.00 1.60 1.60 88 1010.6
20260507012002 14 0.0 0.0 0.00 1.60 1.60 89 1010.5
20260507011902 14 0.0 0.0 0.00 1.60 1.60 89 1010.5
20260507011802 14 0.0 0.0 0.00 1.60 1.60 89 1010.5
20260507011701 14 0.0 0.0 0.00 1.60 1.60 88 1010.5
20260507011602 14 0.0 0.0 0.00 1.60 1.60 88 1010.5
20260507011502 14 0.0 0.0 0.00 1.60 1.60 88 1010.5
20260507011302 14 0.0 0.0 0.00 1.60 1.60 88 1010.6
20260507011202 14 0.0 0.0 0.00 1.60 1.60 88 1010.5
20260507011002 14 0.0 0.0 0.00 1.60 1.60 88 1010.4
20260507010902 14 0.0 0.0 0.00 1.60 1.60 87 1010.4
20260507010802 14 0.0 0.0 0.00 1.60 1.60 88 1010.2
20260507010701 14 0.0 0.0 0.00 1.60 1.60 88 1010.2
20260507010402 14 0.0 0.0 0.00 1.60 1.60 88 1010.2
20260507005903 14 0.0 0.0 0.00 1.60 1.60 89 1010.3
20260507005802 14 0.0 0.0 0.00 1.60 1.60 89 1010.3
20260507005702 14 0.0 0.0 0.00 1.60 1.60 89 1010.3
20260507005502 14 0.0 0.0 0.00 1.60 1.60 88 1010.2
20260507005305 14 0.0 0.0 0.00 1.60 1.60 88 1010.2
20260507005201 14 0.0 0.0 0.00 1.60 1.60 88 1010.1
20260507005103 14 0.0 0.0 0.00 1.60 1.60 88 1009.9
20260507005001 14 0.0 0.0 0.00 1.60 1.60 88 1009.8
20260507004902 14 0.0 0.0 0.00 1.60 1.60 88 1009.9
20260507004802 14 0.0 0.0 0.00 1.60 1.60 88 1010.0
20260507004702 14 0.0 0.0 0.00 1.60 1.60 88 1010.1
20260507004601 14 0.0 0.0 0.00 1.60 1.60 88 1010.1
20260507004501 14 0.0 0.0 0.00 1.60 1.60 89 1010.1
20260507004402 14 0.0 0.0 0.00 1.60 1.60 89 1010.1
20260507004302 14 0.0 0.0 0.00 1.60 1.60 88 1010.0
20260507004202 14 0.0 0.0 0.00 1.60 1.60 88 1009.9
20260507004102 14 0.0 0.0 0.00 1.60 1.60 88 1009.9
20260507004001 14 0.0 0.0 0.00 1.60 1.60 88 1010.0
20260507003902 14 0.0 0.0 0.00 1.60 1.60 89 1010.0
20260507003802 14 0.0 0.0 0.00 1.60 1.60 90 1010.0
20260507003703 14 0.0 0.0 0.00 1.60 1.60 89 1010.0
20260507003602 14 0.0 0.0 0.00 1.60 1.60 89 1009.9
20260507003503 14 0.0 0.0 0.00 1.60 1.60 89 1009.9
20260507003402 14 0.0 0.0 0.00 1.60 1.60 89 1009.8
20260507003303 14 0.0 0.0 0.00 1.60 1.60 89 1009.8
20260507003202 14 0.0 0.0 0.00 1.60 1.60 89 1009.7
20260507003102 14 0.0 0.0 0.00 1.60 1.60 89 1009.7
20260507003002 14 0.0 0.0 0.00 1.60 1.60 89 1009.6
20260507002901 14 0.0 0.0 0.00 1.60 1.60 89 1009.6
20260507002802 14 0.0 0.0 0.00 1.60 1.60 89 1009.6
20260507002702 14 0.0 0.0 0.00 1.60 1.60 89 1009.6
20260507002601 14 0.0 0.0 0.00 1.60 1.60 89 1009.6
20260507002502 14 0.0 0.0 0.00 1.60 1.60 90 1009.5
20260507002305 15 0.0 0.0 0.00 1.60 1.60 89 1009.5
20260507002201 15 0.0 0.0 0.00 1.60 1.60 89 1009.5
20260507002104 15 0.0 0.0 0.00 1.60 1.60 89 1009.5
20260507002002 15 0.0 0.0 0.00 1.60 1.60 89 1009.5
20260507001801 15 0.0 0.0 0.00 1.60 1.60 90 1009.5
20260507001702 15 0.0 0.0 0.00 1.60 1.60 89 1009.5
20260507001602 15 0.0 0.0 0.00 1.60 1.60 89 1009.5
20260507001404 15 0.0 0.0 0.00 1.60 1.60 89 1009.4
20260507001303 15 0.0 0.0 0.00 1.60 1.60 89 1009.5
20260507001202 15 0.0 0.0 0.00 1.60 1.60 89 1009.4
20260507001101 15 0.0 0.0 0.00 1.60 1.60 89 1009.4
20260507001001 15 0.0 0.0 0.00 1.60 1.60 89 1009.3
20260507000902 15 0.0 0.0 0.00 1.60 1.60 89 1009.3
20260507000802 15 0.0 0.0 0.00 1.60 1.60 89 1009.2
20260507000703 15 0.0 0.0 0.00 1.60 1.60 89 1009.1
20260507000603 15 0.0 0.0 0.00 1.60 1.60 89 1009.1
20260507000501 15 0.0 0.0 0.00 1.60 1.60 89 1009.0
20260507000405 15 0.0 0.0 0.00 1.60 1.60 89 1009.0
20260507000303 15 0.0 0.0 0.00 1.60 1.60 89 1009.1
20260507000204 15 0.0 0.0 0.00 1.60 1.60 89 1009.1
20260507000004 15 0.0 0.0 0.00 1.60 1.60 90 1009.1
20260506235902 15 0.0 0.0 0.00 1.60 1.60 89 1009.1
20260506235802 15 0.0 0.0 0.00 1.60 1.60 90 1009.1
20260506235702 15 0.0 0.0 0.00 1.60 1.60 90 1009.0
20260506235603 15 0.0 0.0 0.00 1.60 1.60 90 1009.1
20260506235502 15 0.0 0.0 0.00 1.60 1.60 89 1009.0
20260506235402 15 0.0 0.0 0.00 1.60 1.60 91 1009.0
20260506235306 15 0.0 0.0 0.00 1.60 1.60 91 1009.0
20260506235202 15 0.0 0.0 0.00 1.60 1.60 92 1008.9
20260506235103 15 0.0 0.0 0.00 1.60 1.60 92 1008.8
20260506234902 15 0.0 0.0 0.00 1.60 1.60 91 1008.7
20260506234802 15 0.0 0.0 0.00 1.60 1.60 91 1008.6
20260506234503 15 0.0 0.0 0.00 1.60 1.60 92 1008.5
20260506234401 15 0.0 0.0 0.00 1.60 1.60 92 1008.6
20260506234304 15 0.0 0.0 0.00 1.60 1.60 92 1008.5
20260506234203 15 0.0 0.0 0.00 1.60 1.60 92 1008.5
20260506234105 15 0.0 0.0 0.00 1.60 1.60 92 1008.5
20260506234002 15 0.0 0.0 0.03 1.60 1.60 92 1008.5
20260506233902 15 0.0 0.0 0.03 1.60 1.60 91 1008.5
20260506233802 15 0.0 0.0 0.03 1.60 1.60 91 1008.4
20260506233705 15 0.0 0.0 0.05 1.60 1.60 91 1008.4
20260506233602 15 0.0 0.0 0.05 1.60 1.60 91 1008.3
20260506233502 15 0.0 0.0 0.05 1.60 1.60 91 1008.3
20260506233403 15 0.0 0.0 0.08 1.60 1.60 91 1008.3
20260506233304 15 0.0 0.0 0.08 1.60 1.60 91 1008.2
20260506233202 15 0.0 0.0 0.10 1.60 1.60 91 1008.2
20260506233103 15 0.0 0.0 0.10 1.60 1.60 92 1008.2
20260506233002 16 0.0 0.0 0.13 1.60 1.60 92 1008.2
20260506232802 16 0.0 0.0 0.15 1.60 1.60 91 1008.2
20260506232702 16 0.0 0.0 0.15 1.60 1.60 91 1008.2
20260506232502 16 0.0 0.0 0.20 1.60 1.60 91 1008.3
20260506232401 16 0.0 0.0 0.20 1.60 1.60 91 1008.3
20260506232306 16 0.0 0.0 0.23 1.60 1.60 91 1008.3
20260506232201 16 0.0 0.0 0.23 1.60 1.60 91 1008.3
20260506232102 16 0.0 0.0 0.25 1.60 1.60 91 1008.3
20260506232002 16 0.0 0.0 0.25 1.60 1.60 91 1008.2
20260506231902 16 0.0 0.0 0.28 1.60 1.60 92 1008.3
20260506231803 16 0.0 0.0 0.28 1.60 1.60 92 1008.3
20260506231701 16 0.0 0.0 0.30 1.60 1.60 92 1008.3
20260506231604 16 0.0 0.0 0.30 1.60 1.60 92 1008.3
20260506231502 16 0.0 0.0 0.30 1.60 1.60 92 1008.3
20260506231402 16 0.0 0.0 0.33 1.60 1.60 92 1008.3
20260506231202 16 0.0 0.0 0.36 1.60 1.60 91 1008.3
20260506230803 16 0.0 0.0 0.38 1.60 1.60 91 1008.2
20260506230702 16 0.0 0.0 0.41 1.60 1.60 91 1008.2
20260506230602 16 0.0 0.0 0.41 1.60 1.60 91 1008.2
20260506230502 16 0.0 0.0 0.41 1.60 1.60 91 1008.2
20260506230402 16 0.0 0.0 0.41 1.60 1.60 91 1008.2
20260506230302 16 0.0 0.0 0.41 1.60 1.60 91 1008.2
20260506230202 16 0.0 0.0 0.41 1.60 1.60 91 1008.1
20260506225903 17 0.0 0.0 0.43 1.60 1.60 92 1008.2
20260506225802 17 0.0 0.0 0.43 1.60 1.60 93 1008.2
20260506225702 17 0.0 0.0 0.43 1.60 1.60 93 1008.2
20260506225502 17 0.0 0.0 0.43 1.60 1.60 94 1008.1
20260506225401 17 0.0 0.0 0.43 1.60 1.60 94 1008.1
20260506225305 17 0.0 0.0 0.43 1.60 1.60 94 1008.1
20260506225202 17 0.0 0.0 0.43 1.60 1.60 94 1008.1
20260506225102 17 0.0 0.0 0.43 1.60 1.60 94 1008.1
20260506225002 17 0.0 0.0 0.43 1.60 1.60 94 1008.1
20260506224902 17 0.0 0.0 0.43 1.60 1.60 94 1008.0
20260506224802 17 0.0 0.0 0.43 1.60 1.60 94 1008.0
20260506224702 17 0.0 0.0 0.43 1.60 1.60 94 1008.1
20260506224602 17 0.0 0.0 0.43 1.60 1.60 94 1008.0
20260506224505 17 0.0 0.0 0.43 1.60 1.60 94 1008.0
20260506224402 17 0.0 0.0 0.43 1.60 1.60 94 1008.0
20260506224301 17 0.0 0.0 0.43 1.60 1.60 94 1008.0
20260506224202 17 0.0 0.0 0.43 1.60 1.60 94 1008.0
20260506224104 17 0.0 0.0 0.43 1.60 1.60 94 1007.9
20260506224002 17 0.0 0.0 0.41 1.57 1.57 94 1007.9
20260506223903 17 0.0 0.0 0.41 1.57 1.57 94 1007.9
20260506223802 17 0.0 0.0 0.41 1.57 1.57 94 1007.9
20260506223703 17 0.0 0.0 0.38 1.55 1.55 94 1007.9
20260506223602 17 0.0 0.0 0.38 1.55 1.55 94 1007.9
20260506223502 17 0.0 0.0 0.38 1.55 1.55 94 1007.9
20260506223403 17 0.0 0.0 0.36 1.52 1.52 94 1007.9
20260506223302 17 0.0 0.0 0.36 1.52 1.52 93 1007.9
20260506223202 17 0.0 0.0 0.33 1.50 1.50 93 1007.9
20260506223101 17 0.0 0.0 0.33 1.50 1.50 93 1007.9
20260506223002 17 0.0 0.0 0.30 1.47 1.47 93 1007.8
20260506222805 17 0.0 0.0 0.28 1.45 1.45 93 1007.6
20260506222702 17 0.0 0.0 0.28 1.45 1.45 93 1007.8
20260506222402 17 0.0 0.0 0.23 1.40 1.40 92 1007.7
20260506222305 17 0.0 0.0 0.20 1.37 1.37 92 1007.8
20260506222202 17 0.0 0.0 0.20 1.37 1.37 92 1007.9
20260506222102 17 0.0 0.0 0.18 1.35 1.35 92 1007.9
20260506222002 18 0.0 0.0 0.18 1.35 1.35 92 1007.8
20260506221901 18 0.0 0.0 0.15 1.32 1.32 92 1007.8
20260506221601 18 0.0 0.0 0.13 1.30 1.30 90 1007.8
20260506221501 18 0.0 0.0 0.13 1.30 1.30 90 1007.7
20260506221304 18 0.0 0.0 0.10 1.27 1.27 90 1007.6
20260506221203 18 0.0 0.0 0.08 1.24 1.24 90 1007.6
20260506221102 18 0.0 0.0 0.08 1.24 1.24 89 1007.6
20260506221004 18 0.0 0.0 0.08 1.24 1.24 89 1007.6
20260506220903 18 0.0 0.0 0.05 1.22 1.22 89 1007.6
20260506220801 18 0.0 0.0 0.05 1.22 1.22 89 1007.5
20260506220701 18 0.0 0.0 0.03 1.19 1.19 89 1007.5
20260506220602 18 0.0 0.0 0.03 1.19 1.19 88 1007.6
20260506220502 18 0.0 0.0 0.03 1.19 1.19 88 1007.6
20260506220402 18 0.0 0.0 0.03 1.19 1.19 88 1007.5
20260506220303 18 0.0 0.0 0.03 1.19 1.19 88 1007.4
20260506220203 18 0.0 0.0 0.03 1.19 1.19 87 1007.4
20260506220005 18 0.0 0.0 0.00 1.17 1.17 87 1007.3
20260506215902 18 0.0 0.0 0.00 1.17 1.17 87 1007.4
20260506215802 18 0.0 0.0 0.00 1.17 1.17 87 1007.5
20260506215702 18 0.0 0.0 0.00 1.17 1.17 87 1007.4
20260506215601 18 0.0 0.0 0.00 1.17 1.17 87 1007.4
20260506215502 18 0.0 0.0 0.00 1.17 1.17 86 1007.4
20260506215402 18 0.0 0.0 0.00 1.17 1.17 86 1007.3
20260506215202 18 0.0 0.0 0.00 1.17 1.17 86 1007.4
20260506215103 18 0.0 0.0 0.00 1.17 1.17 86 1007.3
20260506215002 19 0.0 0.0 0.00 1.17 1.17 86 1007.4
20260506214901 19 0.0 0.0 0.00 1.17 1.17 86 1007.3
20260506214801 19 0.0 0.0 0.00 1.17 1.17 86 1007.4
20260506214702 19 0.0 0.0 0.00 1.17 1.17 86 1007.4
20260506214402 19 0.0 0.0 0.00 1.17 1.17 85 1007.2
20260506214302 19 0.0 0.0 0.00 1.17 1.17 85 1007.2
20260506214003 19 0.0 0.0 0.00 1.17 1.17 85 1007.2
20260506213904 19 0.0 0.0 0.00 1.17 1.17 85 1007.2
20260506213804 19 0.0 0.0 0.00 1.17 1.17 84 1007.2
20260506213702 19 0.0 0.0 0.00 1.17 1.17 85 1007.1
20260506213603 20 0.0 0.0 0.00 1.17 1.17 85 1007.2
20260506213503 20 0.0 0.0 0.00 1.17 1.17 84 1007.1
20260506213402 20 0.0 0.0 0.00 1.17 1.17 84 1007.2
20260506213302 20 0.0 0.0 0.00 1.17 1.17 84 1007.1
20260506213201 20 0.0 0.0 0.00 1.17 1.17 84 1007.1
20260506213102 20 0.0 0.0 0.00 1.17 1.17 85 1007.1
20260506213002 20 0.0 0.0 0.00 1.17 1.17 84 1007.0
20260506212902 20 0.0 0.0 0.00 1.17 1.17 84 1007.0
20260506212802 20 0.0 0.0 0.00 1.17 1.17 84 1007.0
20260506212602 20 0.0 0.0 0.00 1.17 1.17 84 1007.0
20260506212501 20 0.0 0.0 0.00 1.17 1.17 84 1006.9
20260506212402 20 0.0 0.0 0.00 1.17 1.17 84 1006.9
20260506212305 20 0.0 0.0 0.00 1.17 1.17 84 1007.0
20260506212202 20 0.0 0.0 0.00 1.17 1.17 84 1006.9
20260506212102 20 0.0 0.0 0.00 1.17 1.17 85 1006.9
20260506212002 19 0.0 0.0 0.00 1.17 1.17 86 1006.9
20260506211902 19 0.0 0.0 0.00 1.17 1.17 86 1007.0
20260506211802 19 0.0 0.0 0.00 1.17 1.17 85 1007.0
20260506211701 19 0.0 0.0 0.00 1.17 1.17 85 1007.0
20260506211602 19 0.0 0.0 0.00 1.17 1.17 85 1006.9
20260506211501 19 0.0 0.0 0.00 1.17 1.17 85 1006.9
20260506211402 19 0.0 0.0 0.00 1.17 1.17 85 1006.9
20260506211202 19 0.0 0.0 0.00 1.17 1.17 85 1006.9
20260506211002 19 0.0 0.0 0.00 1.17 1.17 86 1007.0
20260506210902 19 0.0 0.0 0.00 1.17 1.17 85 1007.0
20260506210802 19 0.0 0.0 0.00 1.17 1.17 85 1007.0
20260506210704 19 0.0 0.0 0.00 1.17 1.17 85 1007.0
20260506210602 19 0.0 0.0 0.00 1.17 1.17 85 1007.1
20260506210501 19 0.0 0.0 0.00 1.17 1.17 85 1007.0
20260506210402 19 0.0 0.0 0.00 1.17 1.17 85 1007.1
20260506210302 19 0.0 0.0 0.00 1.17 1.17 85 1007.0
20260506210202 19 0.0 0.0 0.00 1.17 1.17 85 1007.0
20260506210004 19 0.0 0.0 0.00 1.17 1.17 85 1007.0
20260506205902 19 0.0 0.0 0.00 1.17 1.17 85 1006.9
20260506205802 19 0.0 0.0 0.00 1.17 1.17 85 1006.9
20260506205702 19 0.0 0.0 0.00 1.17 1.17 84 1006.9
20260506205504 19 0.0 0.0 0.00 1.17 1.17 84 1006.9
20260506205402 19 0.0 0.0 0.00 1.17 1.17 85 1006.9
20260506205305 19 0.0 0.0 0.00 1.17 1.17 85 1007.0
20260506205204 19 0.0 0.0 0.00 1.17 1.17 85 1006.9
20260506205001 19 0.0 0.0 0.00 1.17 1.17 84 1006.9
20260506204902 19 0.0 0.0 0.00 1.17 1.17 84 1006.9
20260506204602 19 0.0 0.0 0.00 1.17 1.17 85 1006.9
20260506204502 19 0.0 0.0 0.00 1.17 1.17 85 1006.9
20260506204303 19 0.0 0.0 0.00 1.17 1.17 85 1006.9
20260506204202 19 0.0 0.0 0.00 1.17 1.17 85 1006.9
20260506204001 19 0.0 0.0 0.00 1.17 1.17 85 1006.9
20260506203802 19 0.0 0.0 0.00 1.17 1.17 85 1006.9
20260506203703 19 0.0 0.0 0.00 1.17 1.17 85 1006.9
20260506203402 19 0.0 0.0 0.00 1.17 1.17 85 1006.9
20260506203301 19 0.0 0.0 0.00 1.17 1.17 85 1006.9
20260506203203 19 0.0 0.0 0.00 1.17 1.17 85 1006.9
20260506203104 19 0.0 0.0 0.00 1.17 1.17 85 1006.9
20260506203002 19 0.0 0.0 0.00 1.17 1.17 85 1006.9
20260506202901 19 0.0 0.0 0.00 1.17 1.17 85 1006.9
20260506202803 19 0.0 0.0 0.00 1.17 1.17 86 1006.9
20260506202701 19 0.0 0.0 0.00 1.17 1.17 86 1006.9
20260506202602 18 0.0 0.0 0.00 1.17 1.17 86 1006.8
20260506202502 19 0.0 0.0 0.00 1.17 1.17 85 1006.8
20260506202402 18 0.0 0.0 0.00 1.17 1.17 85 1006.9
20260506202305 18 0.0 0.0 0.00 1.17 1.17 86 1006.8
20260506202203 18 0.0 0.0 0.00 1.17 1.17 86 1006.9
20260506202104 18 0.0 0.0 0.00 1.17 1.17 86 1006.8
20260506202002 18 0.0 0.0 0.00 1.17 1.17 86 1006.9
20260506201802 18 0.0 0.0 0.00 1.17 1.17 86 1006.9
20260506201703 18 0.0 0.0 0.00 1.17 1.17 86 1006.9
20260506201602 18 0.0 0.0 0.00 1.17 1.17 86 1006.9
20260506201502 18 0.0 0.0 0.00 1.17 1.17 86 1006.9
20260506201402 18 0.0 0.0 0.00 1.17 1.17 86 1006.8
20260506201303 18 0.0 0.0 0.00 1.17 1.17 86 1006.8
20260506201202 18 0.0 0.0 0.00 1.17 1.17 86 1006.9
20260506201102 18 0.0 0.0 0.00 1.17 1.17 86 1006.9
20260506201002 18 0.0 0.0 0.00 1.17 1.17 86 1006.9
20260506200901 18 0.0 0.0 0.00 1.17 1.17 86 1006.9
20260506200803 18 0.0 0.0 0.00 1.17 1.17 86 1006.9
20260506200602 18 0.0 0.0 0.00 1.17 1.17 86 1007.0
20260506200502 18 0.0 0.0 0.00 1.17 1.17 86 1006.9
20260506200401 18 0.0 0.0 0.00 1.17 1.17 87 1006.9
20260506200302 18 0.0 0.0 0.00 1.17 1.17 87 1006.9
20260506200202 18 0.0 0.0 0.00 1.17 1.17 87 1006.9
20260506195903 18 0.0 0.0 0.00 1.17 1.17 87 1006.9
20260506195802 18 0.0 0.0 0.00 1.17 1.17 87 1006.9
20260506195702 18 0.0 0.0 0.00 1.17 1.17 87 1007.0
20260506195501 18 0.0 0.0 0.00 1.17 1.17 87 1007.0
20260506195403 18 0.0 0.0 0.00 1.17 1.17 87 1007.0
20260506195305 18 0.0 0.0 0.00 1.17 1.17 87 1007.1
20260506195202 18 0.0 0.0 0.00 1.17 1.17 87 1007.0
20260506195101 18 0.0 0.0 0.00 1.17 1.17 87 1007.0
20260506195002 18 0.0 0.0 0.00 1.17 1.17 87 1007.1
20260506194702 18 0.0 0.0 0.00 1.17 1.17 88 1007.1
20260506194601 18 0.0 0.0 0.00 1.17 1.17 89 1007.1
20260506194401 18 0.0 0.0 0.00 1.17 1.17 88 1007.2
20260506194304 18 0.0 0.0 0.00 1.17 1.17 88 1007.1
20260506194102 18 0.0 0.0 0.00 1.17 1.17 88 1007.2
20260506194003 18 0.0 0.0 0.00 1.17 1.17 88 1007.2
20260506193902 18 0.0 0.0 0.00 1.17 1.17 89 1007.2
20260506193602 18 0.0 0.0 0.00 1.17 1.17 89 1007.1
20260506193403 18 0.0 0.0 0.00 1.17 1.17 89 1007.2
20260506193302 18 0.0 0.0 0.00 1.17 1.17 89 1007.1
20260506193201 18 0.0 0.0 0.00 1.17 1.17 89 1007.2
20260506193102 18 0.0 0.0 0.00 1.17 1.17 89 1007.1
20260506192902 18 0.0 0.0 0.00 1.17 1.17 90 1007.1
20260506192802 18 0.0 0.0 0.00 1.17 1.17 90 1007.2
20260506192602 17 0.0 0.0 0.00 1.17 1.17 90 1007.1
20260506192502 17 0.0 0.0 0.00 1.17 1.17 90 1007.1
20260506192403 17 0.0 0.0 0.00 1.17 1.17 90 1007.2
20260506192305 17 0.0 0.0 0.00 1.17 1.17 90 1007.2
20260506192203 17 0.0 0.0 0.00 1.17 1.17 90 1007.2
20260506192101 17 0.0 0.0 0.00 1.17 1.17 90 1007.2
20260506192002 17 0.0 0.0 0.00 1.17 1.17 90 1007.2
20260506191904 17 0.0 0.0 0.00 1.17 1.17 90 1007.3
20260506191803 17 0.0 0.0 0.00 1.17 1.17 91 1007.2
20260506191702 17 0.0 0.0 0.00 1.17 1.17 90 1007.2
20260506191602 17 0.0 0.0 0.00 1.17 1.17 90 1007.2
20260506191502 17 0.0 0.0 0.00 1.17 1.17 90 1007.2
20260506191404 17 0.0 0.0 0.00 1.17 1.17 91 1007.2
20260506191303 17 0.0 0.0 0.00 1.17 1.17 90 1007.2
20260506191202 17 0.0 0.0 0.00 1.17 1.17 91 1007.2
20260506191101 17 0.0 0.0 0.00 1.17 1.17 90 1007.2
20260506191002 17 0.0 0.0 0.00 1.17 1.17 90 1007.2
20260506190902 17 0.0 0.0 0.00 1.17 1.17 90 1007.2
20260506190803 17 0.0 0.0 0.00 1.17 1.17 90 1007.2
20260506190701 17 0.0 0.0 0.00 1.17 1.17 90 1007.2
20260506190602 17 0.0 0.0 0.00 1.17 1.17 90 1007.2
20260506190501 17 0.0 0.0 0.00 1.17 1.17 91 1007.2
20260506190401 17 0.0 0.0 0.00 1.17 1.17 91 1007.3
20260506190202 17 0.0 0.0 0.00 1.17 1.17 91 1007.2
20260506190002 17 0.0 0.0 0.00 1.17 1.17 91 1007.2
20260506185800 17 0.0 0.0 0.00 1.17 1.17 91 1007.3
20260506185701 17 0.0 0.0 0.00 1.17 1.17 91 1007.3
20260506185600 17 0.0 0.0 0.00 1.17 1.17 91 1007.3
20260506185501 17 0.0 0.0 0.00 1.17 1.17 91 1007.3
20260506185401 17 0.0 0.0 0.00 1.17 1.17 92 1007.3
20260506185201 17 0.0 0.0 0.00 1.17 1.17 92 1007.3
20260506185000 17 0.0 0.0 0.00 1.17 1.17 92 1007.3
20260506184800 17 0.0 0.0 0.00 1.17 1.17 92 1007.3
20260506184701 17 0.0 0.0 0.00 1.17 1.17 92 1007.4
20260506184602 17 0.0 0.0 0.00 1.17 1.17 92 1007.4
20260506184501 17 0.0 0.0 0.00 1.17 1.17 92 1007.4
20260506184402 17 0.0 0.0 0.00 1.17 1.17 92 1007.5
20260506184301 17 0.0 0.0 0.00 1.17 1.17 92 1007.5
20260506184202 17 0.0 0.0 0.00 1.17 1.17 93 1007.5
20260506184101 17 0.0 0.0 0.00 1.17 1.17 93 1007.5
20260506184002 17 0.0 0.0 0.00 1.17 1.17 93 1007.5
20260506183902 17 0.0 0.0 0.00 1.17 1.17 93 1007.5
20260506183801 17 0.0 0.0 0.00 1.17 1.17 93 1007.6
20260506183700 17 0.0 0.0 0.00 1.17 1.17 93 1007.5
20260506183601 17 0.0 0.0 0.00 1.17 1.17 93 1007.6
20260506183500 16 0.0 0.0 0.00 1.17 1.17 93 1007.6
20260506183401 16 0.0 0.0 0.00 1.17 1.17 93 1007.6
20260506183201 16 0.0 0.0 0.00 1.17 1.17 94 1007.6
20260506183101 16 0.0 0.0 0.00 1.17 1.17 94 1007.6
20260506183001 16 0.0 0.0 0.00 1.17 1.17 93 1007.6
20260506182900 16 0.0 0.0 0.00 1.17 1.17 93 1007.5
20260506182801 16 0.0 0.0 0.00 1.17 1.17 94 1007.6
20260506182701 16 0.0 0.0 0.00 1.17 1.17 93 1007.6
20260506182602 16 0.0 0.0 0.00 1.17 1.17 93 1007.6
20260506182501 16 0.0 0.0 0.00 1.17 1.17 93 1007.7
20260506182404 16 0.0 0.0 0.00 1.17 1.17 93 1007.7
20260506182301 16 0.0 0.0 0.00 1.17 1.17 93 1007.6
20260506182200 16 0.0 0.0 0.00 1.17 1.17 93 1007.6
20260506182103 16 0.0 0.0 0.00 1.17 1.17 93 1007.6
20260506182001 16 0.0 0.0 0.00 1.17 1.17 93 1007.7
20260506181902 16 0.0 0.0 0.00 1.17 1.17 94 1007.6
20260506181701 16 0.0 0.0 0.00 1.17 1.17 93 1007.6
20260506181501 16 0.0 0.0 0.00 1.17 1.17 94 1007.7
20260506181401 16 0.0 0.0 0.00 1.17 1.17 93 1007.7
20260506181200 16 0.0 0.0 0.00 1.17 1.17 94 1007.7
20260506181101 16 0.0 0.0 0.00 1.17 1.17 94 1007.7
20260506181001 16 0.0 0.0 0.00 1.17 1.17 94 1007.7
20260506180901 16 0.0 0.0 0.00 1.17 1.17 94 1007.7
20260506180800 16 0.0 0.0 0.00 1.17 1.17 94 1007.7
20260506180701 16 0.0 0.0 0.00 1.17 1.17 94 1007.7
20260506180601 16 0.0 0.0 0.00 1.17 1.17 95 1007.7
20260506180501 16 0.0 0.0 0.00 1.17 1.17 95 1007.7
20260506180401 16 0.0 0.0 0.00 1.17 1.17 95 1007.7
20260506180300 16 0.0 0.0 0.00 1.17 1.17 95 1007.7
20260506180201 16 0.0 0.0 0.00 1.17 1.17 95 1007.7
20260506180005 16 0.0 0.0 0.00 1.17 1.17 94 1007.7
20260506175900 16 0.0 0.0 0.00 1.17 1.17 94 1007.6
20260506175801 16 0.0 0.0 0.00 1.17 1.17 94 1007.7
20260506175600 16 0.0 0.0 0.00 1.17 1.17 94 1007.7
20260506175500 16 0.0 0.0 0.00 1.17 1.17 94 1007.8
20260506175402 16 0.0 0.0 0.00 1.17 1.17 94 1007.8
20260506175302 16 0.0 0.0 0.00 1.17 1.17 94 1007.8
20260506175201 16 0.0 0.0 0.00 1.17 1.17 94 1007.8
20260506175101 16 0.0 0.0 0.00 1.17 1.17 94 1007.7
20260506175002 16 0.0 0.0 0.00 1.17 1.17 94 1007.7
20260506174901 16 0.0 0.0 0.00 1.17 1.17 94 1007.7
20260506174800 16 0.0 0.0 0.00 1.17 1.17 94 1007.8
20260506174701 16 0.0 0.0 0.00 1.17 1.17 94 1007.8
20260506174601 16 0.0 0.0 0.00 1.17 1.17 94 1007.7
20260506174502 16 0.0 0.0 0.00 1.17 1.17 94 1007.8
20260506174400 16 0.0 0.0 0.00 1.17 1.17 94 1007.8
20260506174301 16 0.0 0.0 0.00 1.17 1.17 94 1007.8
20260506174202 16 0.0 0.0 0.00 1.17 1.17 94 1007.8
20260506174002 16 0.0 0.0 0.00 1.17 1.17 94 1007.7
20260506173900 16 0.0 0.0 0.00 1.17 1.17 94 1007.7
20260506173802 16 0.0 0.0 0.00 1.17 1.17 94 1007.7
20260506173701 16 0.0 0.0 0.00 1.17 1.17 94 1007.7
20260506173601 16 0.0 0.0 0.00 1.17 1.17 94 1007.6
20260506173402 16 0.0 0.0 0.00 1.17 1.17 94 1007.6
20260506173302 16 0.0 0.0 0.00 1.17 1.17 94 1007.6
20260506173201 16 0.0 0.0 0.00 1.17 1.17 93 1007.6
20260506173101 16 0.0 0.0 0.00 1.17 1.17 93 1007.7
20260506173001 16 0.0 0.0 0.00 1.17 1.17 93 1007.7
20260506172801 16 0.0 0.0 0.00 1.17 1.17 94 1007.7
20260506172701 16 0.0 0.0 0.00 1.17 1.17 94 1007.6
20260506172601 16 0.0 0.0 0.00 1.17 1.17 94 1007.7
20260506172501 16 0.0 0.0 0.00 1.17 1.17 94 1007.6
20260506172401 16 0.0 0.0 0.00 1.17 1.17 94 1007.7
20260506172301 16 0.0 0.0 0.00 1.17 1.17 94 1007.7
20260506172101 16 0.0 0.0 0.00 1.17 1.17 94 1007.7
20260506172001 16 0.0 0.0 0.00 1.17 1.17 94 1007.7
20260506171900 16 0.0 0.0 0.00 1.17 1.17 94 1007.7
20260506171802 16 0.0 0.0 0.00 1.17 1.17 94 1007.7
20260506171700 16 0.0 0.0 0.00 1.17 1.17 94 1007.7
20260506171601 16 0.0 0.0 0.00 1.17 1.17 94 1007.8
20260506171500 16 0.0 0.0 0.00 1.17 1.17 94 1007.8
20260506171402 16 0.0 0.0 0.00 1.17 1.17 94 1007.7
20260506171301 16 0.0 0.0 0.00 1.17 1.17 94 1007.7
20260506171201 16 0.0 0.0 0.00 1.17 1.17 94 1007.8
20260506171101 16 0.0 0.0 0.00 1.17 1.17 94 1007.8
20260506171001 16 0.0 0.0 0.00 1.17 1.17 94 1007.7
20260506170901 16 0.0 0.0 0.00 1.17 1.17 94 1007.8
20260506170802 16 0.0 0.0 0.00 1.17 1.17 94 1007.7
20260506170500 16 0.0 0.0 0.00 1.17 1.17 95 1007.8
20260506170301 16 0.0 0.0 0.00 1.17 1.17 95 1007.8
20260506170202 16 0.0 0.0 0.00 1.17 1.17 95 1007.8
20260506170101 16 0.0 0.0 0.00 1.17 1.17 95 1007.8
20260506170004 16 0.0 0.0 0.00 1.17 1.17 95 1007.8
20260506165802 15 0.0 0.0 0.00 1.17 1.17 95 1007.8
20260506165601 15 0.0 0.0 0.00 1.17 1.17 95 1007.8
20260506165503 15 0.0 0.0 0.00 1.17 1.17 95 1007.8
20260506165402 15 0.0 0.0 0.00 1.17 1.17 95 1007.8
20260506165305 15 0.0 0.0 0.00 1.17 1.17 96 1007.8
20260506165201 15 0.0 0.0 0.00 1.17 1.17 96 1007.9
20260506165101 15 0.0 0.0 0.00 1.17 1.17 96 1007.9
20260506165002 15 0.0 0.0 0.00 1.17 1.17 96 1007.8
20260506164902 15 0.0 0.0 0.00 1.17 1.17 96 1007.8
20260506164803 15 0.0 0.0 0.00 1.17 1.17 96 1007.8
20260506164702 15 0.0 0.0 0.00 1.17 1.17 96 1007.8
20260506164602 15 0.0 0.0 0.00 1.17 1.17 96 1007.8
20260506164303 15 0.0 0.0 0.00 1.17 1.17 96 1007.9
20260506164202 15 0.0 0.0 0.00 1.17 1.17 96 1007.8
20260506164102 15 0.0 0.0 0.00 1.17 1.17 96 1007.9
20260506163901 15 0.0 0.0 0.00 1.17 1.17 96 1007.8
20260506163802 15 0.0 0.0 0.00 1.17 1.17 96 1007.8
20260506163502 15 0.0 0.0 0.00 1.17 1.17 96 1007.8
20260506163401 15 0.0 0.0 0.00 1.17 1.17 96 1007.8
20260506163302 15 0.0 0.0 0.00 1.17 1.17 96 1007.8
20260506163201 15 0.0 0.0 0.00 1.17 1.17 96 1007.8
20260506163102 15 0.0 0.0 0.00 1.17 1.17 96 1007.8
20260506162901 15 0.0 0.0 0.00 1.17 1.17 96 1007.8
20260506162801 15 0.0 0.0 0.00 1.17 1.17 96 1007.8
20260506162701 15 0.0 0.0 0.00 1.17 1.17 96 1007.9
20260506162601 15 0.0 0.0 0.00 1.17 1.17 96 1007.8
20260506162503 15 0.0 0.0 0.00 1.17 1.17 96 1007.8
20260506162403 15 0.0 0.0 0.00 1.17 1.17 96 1007.9
20260506162306 15 0.0 0.0 0.00 1.17 1.17 96 1007.9
20260506162202 15 0.0 0.0 0.00 1.17 1.17 96 1007.9
20260506162102 15 0.0 0.0 0.00 1.17 1.17 96 1007.9
20260506162004 15 0.0 0.0 0.00 1.17 1.17 96 1007.9
20260506161902 15 0.0 0.0 0.00 1.17 1.17 96 1007.9
20260506161802 15 0.0 0.0 0.00 1.17 1.17 96 1007.9
20260506161603 15 0.0 0.0 0.00 1.17 1.17 96 1007.9
20260506161502 15 0.0 0.0 0.03 1.17 1.17 96 1007.9
20260506161401 15 0.0 0.0 0.03 1.17 1.17 96 1007.9
20260506161202 15 0.0 0.0 0.03 1.17 1.17 96 1007.9
20260506161102 15 0.0 0.0 0.03 1.17 1.17 96 1007.9
20260506161004 15 0.0 0.0 0.03 1.17 1.17 96 1007.9
20260506160903 15 0.0 0.0 0.05 1.17 1.17 96 1007.9
20260506160603 15 0.0 0.0 0.08 1.17 1.17 96 1008.0
20260506160202 15 0.0 0.0 0.10 1.17 1.17 96 1008.0
20260506160104 15 0.0 0.0 0.10 1.17 1.17 96 1007.9
20260506160002 15 0.0 0.0 0.13 1.17 1.17 96 1007.9
20260506155900 15 0.0 0.0 0.13 1.17 1.17 96 1008.0
20260506155800 15 0.0 0.0 0.15 1.17 1.17 96 1008.0
20260506155700 15 0.0 0.0 0.15 1.17 1.17 96 1008.0
20260506155600 15 0.0 0.0 0.18 1.17 1.17 96 1008.0
20260506155500 15 0.0 0.0 0.18 1.17 1.17 96 1008.0
20260506155400 15 0.0 0.0 0.20 1.17 1.17 96 1008.0
20260506155301 15 0.0 0.0 0.20 1.17 1.17 96 1008.1
20260506155201 15 0.0 0.0 0.23 1.17 1.17 96 1008.0
20260506155101 15 0.0 0.0 0.23 1.17 1.17 96 1008.0
20260506155001 15 0.0 0.0 0.25 1.17 1.17 96 1008.0
20260506154900 15 0.0 0.0 0.25 1.17 1.17 96 1008.0
20260506154801 15 0.0 0.0 0.28 1.17 1.17 96 1008.0
20260506154702 15 0.0 0.0 0.28 1.17 1.17 96 1008.0
20260506154601 15 0.0 0.0 0.30 1.17 1.17 96 1008.0
20260506154501 15 0.0 0.0 0.30 1.17 1.17 96 1008.0
20260506154400 15 0.0 0.0 0.33 1.17 1.17 96 1008.0
20260506154302 15 0.0 0.0 0.36 1.17 1.17 96 1008.0
20260506154201 15 0.0 0.0 0.36 1.17 1.17 96 1007.9
20260506154101 15 0.0 0.0 0.38 1.17 1.17 96 1007.9
20260506154002 15 0.0 0.0 0.38 1.17 1.17 96 1008.0
20260506153902 15 0.0 0.0 0.41 1.17 1.17 96 1007.9
20260506153801 15 0.0 0.0 0.43 1.17 1.17 96 1007.9
20260506153702 15 0.0 0.0 0.43 1.17 1.17 96 1007.9
20260506153600 15 0.0 0.0 0.46 1.17 1.17 96 1007.9
20260506153401 15 0.0 0.0 0.48 1.17 1.17 96 1007.9
20260506153201 15 0.0 0.0 0.51 1.17 1.17 96 1007.9
20260506153102 15 0.0 0.0 0.53 1.17 1.17 96 1007.8
20260506153000 15 0.0 0.0 0.56 1.17 1.17 96 1007.7
20260506152902 15 0.0 0.0 0.56 1.17 1.17 96 1007.8
20260506152801 15 0.0 0.0 0.58 1.17 1.17 96 1007.8
20260506152700 15 0.0 0.0 0.58 1.17 1.17 96 1007.9
20260506152601 15 0.0 0.0 0.61 1.17 1.17 96 1007.8
20260506152501 15 0.0 0.0 0.61 1.17 1.17 96 1007.8
20260506152401 15 0.0 0.0 0.64 1.17 1.17 96 1007.7
20260506152301 15 0.0 0.0 0.64 1.17 1.17 96 1007.8
20260506152200 15 0.0 0.0 0.66 1.17 1.17 96 1007.8
20260506152101 15 0.0 0.0 0.66 1.17 1.17 96 1007.8
20260506152001 15 0.0 0.0 0.66 1.17 1.17 96 1007.8
20260506151901 15 0.0 0.0 0.69 1.17 1.17 96 1007.8
20260506151801 15 0.0 0.0 0.69 1.17 1.17 96 1007.8
20260506151701 15 0.0 0.0 0.69 1.17 1.17 96 1007.8
20260506151602 15 0.0 0.0 0.69 1.17 1.17 96 1007.8
20260506151401 15 0.0 0.0 0.66 1.14 1.14 96 1007.8
20260506151201 15 0.0 0.0 0.66 1.14 1.14 96 1007.8
20260506151101 15 0.0 0.0 0.66 1.14 1.14 96 1007.8
20260506151001 15 0.0 0.0 0.64 1.12 1.12 96 1007.8
20260506150901 15 0.0 0.0 0.66 1.12 1.12 96 1007.8
20260506150800 15 0.0 0.0 0.66 1.12 1.12 96 1007.9
20260506150701 15 0.0 0.0 0.64 1.09 1.09 96 1007.9
20260506150600 15 0.0 0.0 0.64 1.09 1.09 96 1008.0
20260506150500 15 0.0 0.0 0.64 1.09 1.09 96 1008.0
20260506150400 15 0.0 0.0 0.61 1.07 1.07 96 1008.0
20260506150200 15 0.0 0.0 0.61 1.07 1.07 96 1008.0
20260506145901 15 0.0 0.0 0.58 1.04 1.04 96 1008.0
20260506145800 15 0.0 0.0 0.56 1.02 1.02 96 1008.1
20260506145700 15 0.0 0.0 0.56 1.02 1.02 95 1008.2
20260506145601 15 0.0 0.0 0.56 0.99 0.99 95 1008.2
20260506145501 15 0.0 0.0 0.56 0.99 0.99 95 1008.3
20260506145401 15 0.0 0.0 0.53 0.97 0.97 95 1008.2
20260506145305 15 0.0 0.0 0.53 0.97 0.97 95 1008.3
20260506145100 15 0.0 0.0 0.53 0.94 0.94 95 1008.4
20260506145001 15 0.0 0.0 0.51 0.91 0.91 95 1008.5
20260506144902 15 0.0 0.0 0.51 0.91 0.91 95 1008.5
20260506144701 15 0.0 0.0 0.51 0.89 0.89 95 1008.5
20260506144601 15 0.0 0.0 0.48 0.86 0.86 95 1008.5
20260506144401 15 0.0 0.0 0.48 0.84 0.84 95 1008.6
20260506144301 15 0.0 0.0 0.46 0.81 0.81 95 1008.6
20260506144201 15 0.0 0.0 0.46 0.81 0.81 95 1008.6
20260506144100 15 0.0 0.0 0.46 0.79 0.79 95 1008.7
20260506144000 15 0.0 0.0 0.46 0.79 0.79 95 1008.8
20260506143900 15 0.0 0.0 0.43 0.76 0.76 95 1008.7
20260506143701 15 0.0 0.0 0.41 0.74 0.74 95 1008.8
20260506143601 15 0.0 0.0 0.38 0.71 0.71 95 1008.8
20260506143501 15 0.0 0.0 0.41 0.71 0.71 95 1008.9
20260506143303 15 0.0 0.0 0.36 0.66 0.66 95 1008.9
20260506143201 15 0.0 0.0 0.36 0.66 0.66 95 1008.8
20260506143000 15 0.0 0.0 0.33 0.61 0.61 94 1008.9
20260506142902 15 0.0 0.0 0.33 0.61 0.61 94 1008.8
20260506142801 15 0.0 0.0 0.30 0.58 0.58 95 1008.9
20260506142701 15 0.0 0.0 0.33 0.58 0.58 95 1008.9
20260506142603 15 0.0 0.0 0.30 0.56 0.56 95 1008.9
20260506142500 15 0.0 0.0 0.30 0.56 0.56 94 1008.8
20260506142403 15 0.0 0.0 0.30 0.53 0.53 94 1008.8
20260506142301 15 0.0 0.0 0.30 0.53 0.53 94 1008.8
20260506142201 15 0.0 0.0 0.28 0.51 0.51 94 1008.7
20260506142101 15 0.0 0.0 0.28 0.51 0.51 94 1008.6
20260506142000 15 0.0 0.0 0.30 0.51 0.51 94 1008.6
20260506141901 15 0.0 0.0 0.28 0.48 0.48 94 1008.5
20260506141800 15 0.0 0.0 0.28 0.48 0.48 94 1008.5
20260506141701 15 0.0 0.0 0.28 0.48 0.48 94 1008.4
20260506141602 15 0.0 0.0 0.28 0.48 0.48 94 1008.5
20260506141400 15 0.0 0.0 0.30 0.48 0.48 94 1008.5
20260506141206 15 0.0 0.0 0.30 0.48 0.48 94 1008.4
20260506141102 15 0.0 0.0 0.30 0.48 0.48 94 1008.4
20260506141003 15 0.0 0.0 0.30 0.48 0.48 94 1008.3
20260506140902 15 0.0 0.0 0.28 0.46 0.46 94 1008.3
20260506140801 15 0.0 0.0 0.28 0.46 0.46 94 1008.3
20260506140701 15 0.0 0.0 0.28 0.46 0.46 94 1008.2
20260506140501 15 0.0 0.0 0.28 0.46 0.46 94 1008.2
20260506140401 15 0.0 0.0 0.28 0.46 0.46 95 1008.2
20260506140302 15 0.0 0.0 0.28 0.46 0.46 94 1008.2
20260506140201 15 0.0 0.0 0.28 0.46 0.46 95 1008.3
20260506140003 15 0.0 0.0 0.28 0.46 0.46 94 1008.2
20260506135901 15 0.0 0.0 0.28 0.46 0.46 94 1008.1
20260506135801 15 0.0 0.0 0.28 0.46 0.46 94 1008.2
20260506135701 15 0.0 0.0 0.28 0.46 0.46 94 1008.1
20260506135500 15 0.0 0.0 0.25 0.43 0.43 94 1008.1
20260506135401 15 0.0 0.0 0.25 0.43 0.43 94 1008.1
20260506135301 15 0.0 0.0 0.25 0.43 0.43 94 1008.2
20260506135201 15 0.0 0.0 0.23 0.41 0.41 94 1008.2
20260506135102 15 0.0 0.0 0.23 0.41 0.41 94 1008.1
20260506134801 15 0.0 0.0 0.20 0.38 0.38 93 1008.2
20260506134701 15 0.0 0.0 0.23 0.38 0.38 93 1008.2
20260506134602 15 0.0 0.0 0.23 0.38 0.38 93 1008.1
20260506134501 15 0.0 0.0 0.20 0.36 0.36 93 1008.1
20260506134400 15 0.0 0.0 0.20 0.36 0.36 93 1008.1
20260506134301 15 0.0 0.0 0.20 0.36 0.36 93 1008.1
20260506134202 15 0.0 0.0 0.20 0.36 0.36 93 1008.1
20260506134102 15 0.0 0.0 0.18 0.33 0.33 93 1008.1
20260506134002 15 0.0 0.0 0.18 0.33 0.33 93 1008.2
20260506133903 15 0.0 0.0 0.20 0.33 0.33 93 1008.3
20260506133702 15 0.0 0.0 0.20 0.33 0.33 93 1008.3
20260506133603 15 0.0 0.0 0.20 0.33 0.33 93 1008.4
20260506133501 15 0.0 0.0 0.18 0.30 0.30 92 1008.4
20260506133401 15 0.0 0.0 0.18 0.30 0.30 92 1008.4
20260506133300 15 0.0 0.0 0.18 0.30 0.30 92 1008.4
20260506133200 16 0.0 0.0 0.18 0.30 0.30 92 1008.4
20260506133101 15 0.0 0.0 0.15 0.28 0.28 92 1008.3
20260506132905 16 0.0 0.0 0.15 0.28 0.28 92 1008.4
20260506132801 16 0.0 0.0 0.15 0.28 0.28 92 1008.4
20260506132701 16 0.0 0.0 0.13 0.25 0.25 92 1008.4
20260506132602 16 0.0 0.0 0.15 0.25 0.25 92 1008.4
20260506132402 16 0.0 0.0 0.13 0.23 0.23 92 1008.4
20260506132300 16 0.0 0.0 0.13 0.23 0.23 92 1008.4
20260506132200 16 0.0 0.0 0.13 0.23 0.23 92 1008.3
20260506132101 16 0.0 0.0 0.13 0.23 0.23 92 1008.4
20260506132001 16 0.0 0.0 0.10 0.20 0.20 91 1008.5
20260506131900 16 0.0 0.0 0.10 0.20 0.20 91 1008.4
20260506131701 16 0.0 0.0 0.13 0.20 0.20 91 1008.4
20260506131600 16 0.0 0.0 0.13 0.20 0.20 91 1008.3
20260506131500 16 0.0 0.0 0.10 0.18 0.18 91 1008.3
20260506131401 16 0.0 0.0 0.10 0.18 0.18 91 1008.2
20260506131300 16 0.0 0.0 0.10 0.18 0.18 91 1008.2
20260506131201 16 0.0 0.0 0.10 0.18 0.18 91 1008.2
20260506131001 16 0.0 0.0 0.10 0.18 0.18 91 1008.2
20260506130800 16 0.0 0.0 0.10 0.18 0.18 91 1008.2
20260506130700 16 0.0 0.0 0.10 0.18 0.18 91 1008.3
20260506130602 16 0.0 0.0 0.10 0.18 0.18 91 1008.3
20260506130402 16 0.0 0.0 0.13 0.18 0.18 91 1008.3
20260506130301 16 0.0 0.0 0.13 0.18 0.18 91 1008.2
20260506130201 16 0.0 0.0 0.13 0.18 0.18 91 1008.2
20260506130100 16 0.0 0.0 0.13 0.18 0.18 91 1008.2
20260506125801 16 0.0 0.0 0.13 0.18 0.18 91 1008.2
20260506125701 16 0.0 0.0 0.15 0.18 0.18 91 1008.3
20260506125601 16 0.0 0.0 0.15 0.18 0.18 91 1008.3
20260506125503 16 0.0 0.0 0.15 0.18 0.18 91 1008.3
20260506125201 16 0.0 0.0 0.15 0.18 0.18 91 1008.3
20260506124901 16 0.0 0.0 0.15 0.18 0.18 91 1008.4
20260506124800 16 0.0 0.0 0.15 0.18 0.18 91 1008.4
20260506124701 16 0.0 0.0 0.15 0.15 0.15 91 1008.4
20260506124601 16 0.0 0.0 0.15 0.15 0.15 91 1008.3
20260506124500 16 0.0 0.0 0.15 0.15 0.15 90 1008.3
20260506124301 16 0.0 0.0 0.15 0.15 0.15 90 1008.3
20260506124202 16 0.0 0.0 0.15 0.15 0.15 90 1008.3
20260506124101 16 0.0 0.0 0.15 0.15 0.15 90 1008.4
20260506124001 16 0.0 0.0 0.15 0.15 0.15 90 1008.4
20260506123901 16 0.0 0.0 0.13 0.13 0.13 90 1008.4
20260506123801 16 0.0 0.0 0.13 0.13 0.13 90 1008.4
20260506123702 16 0.0 0.0 0.13 0.13 0.13 90 1008.4
20260506123601 16 0.0 0.0 0.13 0.13 0.13 89 1008.4
20260506123501 16 0.0 0.0 0.13 0.13 0.13 89 1008.4
20260506123401 16 0.0 0.0 0.13 0.13 0.13 89 1008.5
20260506123301 16 0.0 0.0 0.13 0.13 0.13 89 1008.5
20260506123201 16 0.0 0.0 0.13 0.13 0.13 89 1008.4
20260506123101 16 0.0 0.0 0.13 0.13 0.13 89 1008.4
20260506122900 16 0.0 0.0 0.13 0.13 0.13 89 1008.6
20260506122800 16 0.0 0.0 0.13 0.13 0.13 89 1008.6
20260506122701 16 0.0 0.0 0.13 0.13 0.13 89 1008.6
20260506122501 16 0.0 0.0 0.10 0.10 0.10 89 1008.6
20260506122402 16 0.0 0.0 0.10 0.10 0.10 88 1008.6
20260506122301 16 0.0 0.0 0.10 0.10 0.10 89 1008.7
20260506122200 16 0.0 0.0 0.10 0.10 0.10 89 1008.7
20260506122101 16 0.0 0.0 0.10 0.10 0.10 88 1008.7
20260506121900 16 0.0 0.0 0.10 0.10 0.10 88 1008.8
20260506121801 16 0.0 0.0 0.10 0.10 0.10 88 1008.7
20260506121701 16 0.0 0.0 0.08 0.08 0.08 88 1008.7
20260506121601 16 0.0 0.0 0.08 0.08 0.08 88 1008.8
20260506121501 16 0.0 0.0 0.08 0.08 0.08 87 1008.7
20260506121402 16 0.0 0.0 0.08 0.08 0.08 87 1008.8
20260506121301 16 0.0 0.0 0.08 0.08 0.08 87 1008.9
20260506121201 16 0.0 0.0 0.08 0.08 0.08 87 1008.8
20260506121101 16 0.0 0.0 0.08 0.08 0.08 87 1008.9
20260506120900 16 0.0 0.0 0.08 0.08 0.08 86 1009.0
20260506120801 16 0.0 0.0 0.08 0.08 0.08 86 1009.0
20260506120600 16 0.0 0.0 0.08 0.08 0.08 86 1009.0
20260506120501 16 0.0 0.0 0.05 0.05 0.05 86 1009.0
20260506120400 16 0.0 0.0 0.05 0.05 0.05 86 1009.0
20260506120301 16 0.0 0.0 0.05 0.05 0.05 86 1009.0
20260506120205 16 0.0 0.0 0.05 0.05 0.05 85 1009.0
20260506120002 16 0.0 0.0 0.05 0.05 0.05 84 1009.0
20260506115902 16 0.0 0.0 0.05 0.05 0.05 84 1008.9
20260506115802 17 0.0 0.0 0.05 0.05 0.05 84 1008.9
20260506115600 17 0.0 0.0 0.03 0.03 0.03 83 1008.9
20260506115501 17 0.0 0.0 0.03 0.03 0.03 83 1008.9
20260506115400 17 0.0 0.0 0.03 0.03 0.03 83 1008.9
20260506115200 17 0.0 0.0 0.03 0.03 0.03 82 1008.8
20260506115102 17 0.0 0.0 0.03 0.03 0.03 83 1008.8
20260506114901 17 0.0 0.0 0.03 0.03 0.03 82 1008.7
20260506114800 17 0.0 0.0 0.00 0.00 0.00 81 1008.6
20260506114601 17 0.0 0.0 0.00 0.00 0.00 81 1008.6
20260506114500 17 0.0 0.0 0.00 0.00 0.00 81 1008.5
20260506114402 17 0.0 0.0 0.00 0.00 0.00 81 1008.5
20260506114301 17 0.0 0.0 0.00 0.00 0.00 81 1008.5
20260506114101 17 0.0 0.0 0.00 0.00 0.00 80 1008.3
20260506114001 17 0.0 0.0 0.00 0.00 0.00 80 1008.4
20260506113901 17 0.0 0.0 0.00 0.00 0.00 79 1008.3
20260506113801 17 0.0 0.0 0.00 0.00 0.00 79 1008.3
20260506113701 17 0.0 0.0 0.00 0.00 0.00 79 1008.2
20260506113602 17 0.0 0.0 0.00 0.00 0.00 78 1008.2
20260506113502 17 0.0 0.0 0.00 0.00 0.00 78 1008.2
20260506113302 17 0.0 0.0 0.00 0.00 0.00 78 1008.2
20260506113201 17 0.0 0.0 0.00 0.00 0.00 78 1008.2
20260506113101 17 0.0 0.0 0.00 0.00 0.00 78 1008.2
20260506113002 17 0.0 0.0 0.00 0.00 0.00 77 1008.2
20260506112801 18 0.0 0.0 0.00 0.00 0.00 76 1008.2
20260506112700 18 0.0 0.0 0.00 0.00 0.00 76 1008.2
20260506112501 18 0.0 0.0 0.00 0.00 0.00 76 1008.2
20260506112300 18 0.0 0.0 0.00 0.00 0.00 76 1008.2
20260506112202 18 0.0 0.0 0.00 0.00 0.00 76 1008.2
20260506112101 18 0.0 0.0 0.00 0.00 0.00 75 1008.2
20260506112003 18 0.0 0.0 0.00 0.00 0.00 75 1008.2
20260506111806 18 0.0 0.0 0.00 0.00 0.00 74 1008.1
20260506111701 18 0.0 0.0 0.00 0.00 0.00 74 1008.1
20260506111602 18 0.0 0.0 0.00 0.00 0.00 74 1008.2
20260506111501 18 0.0 0.0 0.00 0.00 0.00 74 1008.1
20260506111405 18 0.0 0.0 0.00 0.00 0.00 74 1008.1
20260506111201 18 0.0 0.0 0.00 0.00 0.00 73 1008.1
20260506111102 18 0.0 0.0 0.00 0.00 0.00 73 1008.1
20260506111001 18 0.0 0.0 0.00 0.00 0.00 73 1008.1
20260506110901 18 0.0 0.0 0.00 0.00 0.00 73 1008.1
20260506110701 18 0.0 0.0 0.00 0.00 0.00 73 1008.1
20260506110600 18 0.0 0.0 0.00 0.00 0.00 72 1008.1
20260506110501 18 0.0 0.0 0.00 0.00 0.00 72 1008.0
20260506110400 18 0.0 0.0 0.00 0.00 0.00 72 1008.0
20260506110201 18 0.0 0.0 0.00 0.00 0.00 72 1008.0
20260506110100 18 0.0 0.0 0.00 0.00 0.00 72 1008.0
20260506110001 18 0.0 0.0 0.00 0.00 0.00 72 1007.9
20260506105900 18 0.0 0.0 0.00 0.00 0.00 72 1007.9
20260506105800 18 0.0 0.0 0.00 0.00 0.00 72 1007.9
20260506105600 18 0.0 0.0 0.00 0.00 0.00 72 1007.9
20260506105500 18 0.0 0.0 0.00 0.00 0.00 72 1007.9
20260506105401 18 0.0 0.0 0.00 0.00 0.00 72 1007.9
20260506105159 18 0.0 0.0 0.00 0.00 0.00 72 1007.9
20260506105000 18 0.0 0.0 0.00 0.00 0.00 72 1007.8
20260506104902 18 0.0 0.0 0.00 0.00 0.00 72 1007.8
20260506104801 18 0.0 0.0 0.00 0.00 0.00 72 1007.8
20260506104700 18 0.0 0.0 0.00 0.00 0.00 73 1007.8
20260506104600 18 0.0 0.0 0.00 0.00 0.00 73 1007.8
20260506104459 18 0.0 0.0 0.00 0.00 0.00 73 1007.9
20260506104300 18 0.0 0.0 0.00 0.00 0.00 72 1007.8
20260506104200 18 0.0 0.0 0.00 0.00 0.00 72 1007.8
20260506104100 18 0.0 0.0 0.00 0.00 0.00 72 1007.7
20260506104001 18 0.0 0.0 0.00 0.00 0.00 73 1007.7
20260506103901 18 0.0 0.0 0.00 0.00 0.00 73 1007.7
20260506103806 18 0.0 0.0 0.00 0.00 0.00 72 1007.7
20260506103711 18 0.0 0.0 0.00 0.00 0.00 73 1007.7
20260506103600 18 0.0 0.0 0.00 0.00 0.00 72 1007.8
20260506103401 18 0.0 0.0 0.00 0.00 0.00 72 1007.7
20260506103301 18 0.0 0.0 0.00 0.00 0.00 72 1007.7
20260506103200 18 0.0 0.0 0.00 0.00 0.00 72 1007.7
20260506103100 18 0.0 0.0 0.00 0.00 0.00 72 1007.7
20260506103000 18 0.0 0.0 0.00 0.00 0.00 73 1007.7
20260506102900 18 0.0 0.0 0.00 0.00 0.00 72 1007.7
20260506102800 18 0.0 0.0 0.00 0.00 0.00 72 1007.6
20260506102701 18 0.0 0.0 0.00 0.00 0.00 72 1007.7
20260506102600 18 0.0 0.0 0.00 0.00 0.00 73 1007.7
20260506102459 18 0.0 0.0 0.00 0.00 0.00 73 1007.7
20260506102402 18 0.0 0.0 0.00 0.00 0.00 72 1007.7
20260506102300 18 0.0 0.0 0.00 0.00 0.00 71 1007.7
20260506102100 18 0.0 0.0 0.00 0.00 0.00 70 1007.7
20260506102000 18 0.0 0.0 0.00 0.00 0.00 71 1007.7
20260506101801 18 0.0 0.0 0.00 0.00 0.00 70 1007.7
20260506101700 18 0.0 0.0 0.00 0.00 0.00 71 1007.7
20260506101600 18 0.0 0.0 0.00 0.00 0.00 71 1007.5
20260506101500 18 0.0 0.0 0.00 0.00 0.00 71 1007.5
20260506101359 18 0.0 0.0 0.00 0.00 0.00 70 1007.5
20260506101300 18 0.0 0.0 0.00 0.00 0.00 70 1007.5
20260506100900 18 0.0 0.0 0.00 0.00 0.00 69 1007.4
20260506100659 18 0.0 0.0 0.00 0.00 0.00 69 1007.4
20260506100559 18 0.0 0.0 0.00 0.00 0.00 69 1007.4
20260506100459 18 0.0 0.0 0.00 0.00 0.00 68 1007.3
20260506100400 18 0.0 0.0 0.00 0.00 0.00 68 1007.3
20260506100300 18 0.0 0.0 0.00 0.00 0.00 68 1007.3
20260506100201 18 0.0 0.0 0.00 0.00 0.00 68 1007.3
20260506100100 18 0.0 0.0 0.00 0.00 0.00 68 1007.4
20260506100006 18 0.0 0.0 0.00 0.00 0.00 68 1007.4
20260506095901 19 0.0 0.0 0.00 0.00 0.00 68 1007.3
20260506095601 19 0.0 0.0 0.00 0.00 0.00 67 1007.2
20260506095401 19 0.0 0.0 0.00 0.00 0.00 67 1007.2
20260506095305 19 0.0 0.0 0.00 0.00 0.00 67 1007.2
20260506095200 19 0.0 0.0 0.00 0.00 0.00 67 1007.2
20260506095100 19 0.0 0.0 0.00 0.00 0.00 67 1007.1
20260506095000 19 0.0 0.0 0.00 0.00 0.00 67 1007.1
20260506094900 19 0.0 0.0 0.00 0.00 0.00 67 1007.2
20260506094800 19 0.0 0.0 0.00 0.00 0.00 67 1007.2
20260506094701 19 0.0 0.0 0.00 0.00 0.00 66 1007.2
20260506094600 19 0.0 0.0 0.00 0.00 0.00 67 1007.2
20260506094500 19 0.0 0.0 0.00 0.00 0.00 66 1007.3
20260506094300 19 0.0 0.0 0.00 0.00 0.00 66 1007.3
20260506094200 19 0.0 0.0 0.00 0.00 0.00 66 1007.3
20260506094101 19 0.0 0.0 0.00 0.00 0.00 66 1007.4
20260506093902 19 0.0 0.0 0.00 0.00 0.00 66 1007.3
20260506093802 19 0.0 0.0 0.00 0.00 0.00 66 1007.3
20260506093700 19 0.0 0.0 0.00 0.00 0.00 66 1007.3
20260506093600 19 0.0 0.0 0.00 0.00 0.00 65 1007.3
20260506093502 19 0.0 0.0 0.00 0.00 0.00 65 1007.3
20260506093402 19 0.0 0.0 0.00 0.00 0.00 65 1007.3
20260506093300 19 0.0 0.0 0.00 0.00 0.00 65 1007.3
20260506093202 19 0.0 0.0 0.00 0.00 0.00 65 1007.3
20260506093000 19 0.0 0.0 0.00 0.00 0.00 65 1007.3
20260506092901 19 0.0 0.0 0.00 0.00 0.00 64 1007.4
20260506092801 19 0.0 0.0 0.00 0.00 0.00 64 1007.4
20260506092701 19 0.0 0.0 0.00 0.00 0.00 64 1007.4
20260506092600 19 0.0 0.0 0.00 0.00 0.00 64 1007.4
20260506092502 19 0.0 0.0 0.00 0.00 0.00 64 1007.4
20260506092402 19 0.0 0.0 0.00 0.00 0.00 64 1007.4
20260506092302 19 0.0 0.0 0.00 0.00 0.00 64 1007.4
20260506092204 19 0.0 0.0 0.00 0.00 0.00 65 1007.4
20260506092102 19 0.0 0.0 0.00 0.00 0.00 64 1007.3
20260506092001 19 0.0 0.0 0.00 0.00 0.00 64 1007.3
20260506091900 19 0.0 0.0 0.00 0.00 0.00 64 1007.4
20260506091802 19 0.0 0.0 0.00 0.00 0.00 64 1007.4
20260506091702 19 0.0 0.0 0.00 0.00 0.00 64 1007.3
20260506091601 19 0.0 0.0 0.00 0.00 0.00 64 1007.4
20260506091501 19 0.0 0.0 0.00 0.00 0.00 64 1007.4
20260506091400 19 0.0 0.0 0.00 0.00 0.00 64 1007.4
20260506091300 20 0.0 0.0 0.00 0.00 0.00 64 1007.5
20260506091202 19 0.0 0.0 0.00 0.00 0.00 64 1007.4
20260506091104 20 0.0 0.0 0.00 0.00 0.00 64 1007.4
20260506091001 19 0.0 0.0 0.00 0.00 0.00 64 1007.4
20260506090901 19 0.0 0.0 0.00 0.00 0.00 64 1007.6
20260506090802 19 0.0 0.0 0.00 0.00 0.00 64 1007.5
20260506090702 20 0.0 0.0 0.00 0.00 0.00 64 1007.6
20260506090600 19 0.0 0.0 0.00 0.00 0.00 64 1007.6
20260506090501 20 0.0 0.0 0.00 0.00 0.00 64 1007.6
20260506090304 20 0.0 0.0 0.00 0.00 0.00 64 1007.7
20260506090200 20 0.0 0.0 0.00 0.00 0.00 64 1007.6
20260506090100 20 0.0 0.0 0.00 0.00 0.00 63 1007.7
20260506090000 20 0.0 0.0 0.00 0.00 0.00 63 1007.7
20260506085900 20 0.0 0.0 0.00 0.00 0.00 63 1007.6
20260506085801 20 0.0 0.0 0.00 0.00 0.00 63 1007.6
20260506085601 20 0.0 0.0 0.00 0.00 0.00 64 1007.6
20260506085459 20 0.0 0.0 0.00 0.00 0.00 63 1007.6
20260506085400 20 0.0 0.0 0.00 0.00 0.00 63 1007.5
20260506085300 20 0.0 0.0 0.00 0.00 0.00 63 1007.5
20260506085200 20 0.0 0.0 0.00 0.00 0.00 63 1007.6
20260506085100 20 0.0 0.0 0.00 0.00 0.00 64 1007.6
20260506085000 20 0.0 0.0 0.00 0.00 0.00 63 1007.7
20260506084900 20 0.0 0.0 0.00 0.00 0.00 63 1007.6
20260506084759 20 0.0 0.0 0.00 0.00 0.00 64 1007.6
20260506084700 20 0.0 0.0 0.00 0.00 0.00 63 1007.6
20260506084600 20 0.0 0.0 0.00 0.00 0.00 63 1007.5
20260506084359 19 0.0 0.0 0.00 0.00 0.00 63 1007.7
20260506084300 19 0.0 0.0 0.00 0.00 0.00 64 1007.7
20260506084200 19 0.0 0.0 0.00 0.00 0.00 64 1007.6
20260506084101 19 0.0 0.0 0.00 0.00 0.00 64 1007.5
20260506083959 19 0.0 0.0 0.00 0.00 0.00 64 1007.5
20260506083859 19 0.0 0.0 0.00 0.00 0.00 64 1007.5
20260506083800 19 0.0 0.0 0.00 0.00 0.00 64 1007.5
20260506083600 19 0.0 0.0 0.00 0.00 0.00 64 1007.5
20260506083500 20 0.0 0.0 0.00 0.00 0.00 64 1007.5
20260506083359 20 0.0 0.0 0.00 0.00 0.00 64 1007.5
20260506083259 20 0.0 0.0 0.00 0.00 0.00 63 1007.5
20260506083159 20 0.0 0.0 0.00 0.00 0.00 63 1007.5
20260506083059 20 0.0 0.0 0.00 0.00 0.00 63 1007.5
20260506083000 20 0.0 0.0 0.00 0.00 0.00 63 1007.5
20260506082900 20 0.0 0.0 0.00 0.00 0.00 63 1007.5
20260506082801 20 0.0 0.0 0.00 0.00 0.00 63 1007.5
20260506082700 20 0.0 0.0 0.00 0.00 0.00 63 1007.6
20260506082600 20 0.0 0.0 0.00 0.00 0.00 63 1007.5
20260506082459 20 0.0 0.0 0.00 0.00 0.00 62 1007.5
20260506082401 20 0.0 0.0 0.00 0.00 0.00 62 1007.5
20260506082200 20 0.0 0.0 0.00 0.00 0.00 62 1007.6
20260506082059 20 0.0 0.0 0.00 0.00 0.00 62 1007.5
20260506081900 20 0.0 0.0 0.00 0.00 0.00 62 1007.7
20260506081759 20 0.0 0.0 0.00 0.00 0.00 62 1007.7
20260506081704 20 0.0 0.0 0.00 0.00 0.00 62 1007.6
20260506081501 20 0.0 0.0 0.00 0.00 0.00 61 1007.6
20260506081402 20 0.0 0.0 0.00 0.00 0.00 61 1007.5
20260506081101 20 0.0 0.0 0.00 0.00 0.00 61 1007.6
20260506081000 20 0.0 0.0 0.00 0.00 0.00 61 1007.6
20260506080900 20 0.0 0.0 0.00 0.00 0.00 61 1007.6
20260506080800 20 0.0 0.0 0.00 0.00 0.00 61 1007.6
20260506080559 20 0.0 0.0 0.00 0.00 0.00 61 1007.6
20260506080459 20 0.0 0.0 0.00 0.00 0.00 61 1007.6
20260506080359 20 0.0 0.0 0.00 0.00 0.00 61 1007.6
20260506080200 20 0.0 0.0 0.00 0.00 0.00 61 1007.7
20260506073500 20 0.0 0.0 0.00 0.00 0.00 59 1007.6
20260506073259 20 0.0 0.0 0.00 0.00 0.00 59 1007.6
20260506073159 20 0.0 0.0 0.00 0.00 0.00 59 1007.6
20260506073100 20 0.0 0.0 0.00 0.00 0.00 59 1007.6
20260506073000 20 0.0 0.0 0.00 0.00 0.00 59 1007.7
20260506072859 20 0.0 0.0 0.00 0.00 0.00 59 1007.6
20260506072700 20 0.0 0.0 0.00 0.00 0.00 59 1007.7
20260506072601 20 0.0 0.0 0.00 0.00 0.00 59 1007.7
20260506072500 20 0.0 0.0 0.00 0.00 0.00 59 1007.8
20260506072400 20 0.0 0.0 0.00 0.00 0.00 59 1007.7
20260506072300 20 0.0 0.0 0.00 0.00 0.00 59 1007.7
20260506072200 20 0.0 0.0 0.00 0.00 0.00 59 1007.8
20260506072101 20 0.0 0.0 0.00 0.00 0.00 59 1007.8
20260506072000 20 0.0 0.0 0.00 0.00 0.00 58 1007.8
20260506071900 20 0.0 0.0 0.00 0.00 0.00 58 1007.8
20260506071800 20 0.0 0.0 0.00 0.00 0.00 58 1007.8
20260506071700 20 0.0 0.0 0.00 0.00 0.00 59 1007.7
20260506071600 20 0.0 0.0 0.00 0.00 0.00 58 1007.8
20260506071400 20 0.0 0.0 0.00 0.00 0.00 58 1007.8
20260506071300 20 0.0 0.0 0.00 0.00 0.00 59 1007.7
20260506071100 20 0.0 0.0 0.00 0.00 0.00 58 1007.8
20260506070859 20 0.0 0.0 0.00 0.00 0.00 58 1007.8
20260506070759 20 0.0 0.0 0.00 0.00 0.00 58 1007.8
20260506070700 20 0.0 0.0 0.00 0.00 0.00 58 1007.8
20260506070600 21 0.0 0.0 0.00 0.00 0.00 58 1007.8